Find Kosmos-2580

NORAD ID: 62216 Int'l Des: 2024-230 Owner: VVKOV Country: RU operational
LEOCIRCULAR

リアルタイム位置

3D地球を読み込み中...

Kosmos-2580について

説明を読み込み中...

次回通過

Passes for default location (London). Set your location on the main map for personalized predictions.

高度履歴

Loading altitude history...

軌道要素

1 62216U 24230A 26106.86592069 -.00000062 00000-0 94210-5 0 9998
2 62216 67.1480 199.8904 0006739 266.9657 93.0656 13.96675434 69575
Epoch: Apr 16, 2026 • Age: 12 hours

現在のステータス

高度 916.6 km
速度 7.40 km/s
衛星直下点 49.55°N, 113.57°W
打ち上げ日 Dec 4, 2024
運用期間 1.3 years
タイプ other

技術仕様

分類 Payload
質量 6575.00 kg
乾燥質量 6500.00 kg
総質量 6575.00 kg
長さ 6.30 m
直径 2.70 m
スパン 6.30 m
形状 Cyl + 2 Pan
製造者 TSSKBP/ARSLO
バスタイプ Yantar'-Lotos
フェーズステータス In Orbit
所有者/国 VVKOV/RU

Most Searched